Location: Unspecified
(41.5000°N, 0.0000°E)
Time: 02:41:30
(UTC+00:00)

Vanguard 2 - Pass Details

Date: 20 June 2019
Orbit: 553 x 2938 km, 32.9° (Epoch: 16 July)

Event Time Altitude Azimuth Distance (km) Brightness Sun altitude
Rises 07:17:21 0° 203° (SSW) 3,037 10.3 29.1°
Reaches altitude 10° 07:20:19 10° 180° (S) 2,363 10.1 29.7°
Maximum altitude 07:23:39 16° 142° (SE) 2,265 10.5 30.3°
Drops below altitude 10° 07:27:51 10° 107° (ESE) 3,115 11.9 31.1°
Sets 07:32:42 0° 89° (E) 4,608 12.6 32.0°
